{"data":{"norad_id":50503,"epoch":"2026-05-25T01:17:08.951712Z","epoch_age_seconds":71149,"freshness":"FRESH","line1":"1 50503U 21132AL  26145.05357583  .00000025  00000+0  30630-4 0  9998","line2":"2 50503  87.9171 340.0567 0001894  78.3462 281.7883 13.18687888218528","mean_motion":13.18687888,"eccentricity":0.0001894,"inclination_deg":87.9171,"raan_deg":340.0567,"arg_perigee_deg":78.3462,"mean_anomaly_deg":281.7883,"bstar":3.063e-5,"rev_number":21852,"period_min":109.19945599743,"perigee_km":1188.3025483158,"apogee_km":1191.1692585717,"semimajor_km":7567.8729034437,"source":"CELESTRAK","updated_at":"2026-05-25T13:38:22.575008Z"}}